Content
SEND FEEDBACK

Daily
Averages
Monthly
Summary
United States of America

PUT IN BAY, OHIO


Home > North America > United States > Ohio
Elevation: 561 feet     Latitude: 41 39N     Longitude: 082 48W

WEATHER
 
SELECT A DAY
Number of Records: 122,784;   Date Range: 12/10/00 - 8/20/14
 
SHARE

PRINT THIS DATA

[ ← Previous Day ]
WEATHER ALMANAC - FEBRUARY 14, 2013
[ Next Day → ]
[ °C ]   °F
Weather ElementAverageHighLow
Temperature33.7 °F38 °F (7:00 pm)29 °F (1:00 am)
Dewpoint29.9 °F33.6 °F (6:00 pm)26 °F (1:00 am)
Humidity85.6 %93 % (8:00 am)64 % (7:00 pm)
Barometer29.79 in29.84 in (11:00 pm)29.73 in (3:00 pm)
Wind Speed12.2 mph18.4 mph (10:00 pm)
Wind Gust27.6 mph (10:00 pm)
Weather ElementAverage
Wind DirectionSSW (213.8 °)

Weather ElementTotal
Precipitation---
Heating Degree Days31.5 (Base 65)
Averaged from 26 records on February 14, 2013
WEATHER CONDITIONS BREAKOUT
WIND DIRECTION BREAKOUT
WEATHER BY HOUR - FEBRUARY 14, 2013
[ °C ]   °F
Local TimeTemperatureDewpointHumidityBarometerVisibilityWind DirectionWind SpeedGust SpeedPrecipitationEventsConditions
1:00 AM29.0 °F26.0 °F86 %29.82 inSSW (200°)8.1 mph
1:00 AM29.5 °F26.4 °F88 %29.82 inSSW (200°)8.1 mph
2:00 AM29.3 °F26.8 °F90 %29.81 inSSW (200°)6.9 mph
3:00 AM29.8 °F26.6 °F88 %29.81 inSSW (200°)6.9 mph
4:00 AM31.3 °F27.1 °F85 %29.80 inSSW (210°)6.9 mph
5:00 AM31.6 °F27.7 °F85 %29.80 inSW (230°)9.2 mph
6:00 AM31.6 °F28.8 °F89 %29.80 inSW (220°)9.2 mph
7:00 AM32.0 °F29.0 °F84 %29.80 inSW (220°)9.2 mph
7:00 AM31.6 °F28.9 °F90 %29.80 inSW (220°)9.2 mph
8:00 AM31.5 °F29.7 °F93 %29.81 inSSW (210°)9.2 mph
9:00 AM33.6 °F30.7 °F89 %29.82 inSW (220°)10.4 mph
10:00 AM33.6 °F30.9 °F90 %29.81 inSSW (210°)11.5 mph18.4 mph
11:00 AM34.5 °F31.8 °F90 %29.80 inSSW (200°)12.7 mph
12:00 PM34.0 °F31.8 °F92 %29.79 inSouth (190°)12.7 mph
1:00 PM35.0 °F33.0 °F91 %29.75 inSouth (180°)16.1 mph
1:00 PM35.2 °F33.3 °F92 %29.75 inSouth (180°)16.1 mph23.0 mph
2:00 PM35.1 °F31.3 °F86 %29.75 inSouth (190°)13.8 mph
3:00 PM35.8 °F33.3 °F91 %29.73 inSSW (200°)15.0 mph20.7 mph
4:00 PM36.0 °F33.3 °F90 %29.73 inSSW (200°)16.1 mph21.9 mph
5:00 PM35.4 °F33.1 °F91 %29.73 inSSW (200°)12.7 mph
6:00 PM36.5 °F33.6 °F89 %29.74 inSSW (210°)11.5 mph
7:00 PM38.0 °F30.0 °F64 %29.78 inWSW (250°)17.3 mph
7:00 PM37.6 °F30.2 °F75 %29.78 inWSW (250°)17.3 mph26.5 mph
8:00 PM36.9 °F29.1 °F74 %29.79 inWSW (240°)17.3 mph24.2 mph
10:00 PM36.1 °F27.5 °F71 %29.83 inWest (260°)18.4 mph27.6 mph
11:00 PM35.2 °F27.5 °F73 %29.84 inWest (270°)16.1 mph21.9 mph
Hourly data recorded from CXHA, located miles away from Put In Bay, Ohio







STORIES FROM OUR PARTNERS